User: anonymous   Login
Location: Stamford Observatory
(41.1241°N, 73.5498°W)
Time: 11:32:02
(UTC-04:00)
Language:

IRS-P3 - Orbit

View from above orbital plane
View from above orbital plane
View from above satellite
View from above satellite

Ground track
Ground track

The orbit data is extracted from the following two-line orbital elements,

1 23827U 96017A   15089.80768036  .00000265  00000-0  13891-3 0  9994
2 23827 098.6527 028.1281 0002690 201.2384 158.8682 14.22337122987346
Epoch (UTC): 30 March 2015 19:23:03
Eccentricity: 0.0002690
inclination: 98.6527°
perigee height: 815 km
apogee height: 819 km
right ascension of ascending node: 28.1281°
argument of perigee: 201.2384°
revolutions per day: 14.22337122
mean anomaly at epoch: 158.8682°
orbit number at epoch: 98734

The dashed part of the orbit path shows where the satellite is in the earth's shadow,  

DLR